Showing default

RADIATION SAT (5E 1), 671

Orbit data source: Space-Track

RADIATION SAT (5E 1), 671 is a payload satellite owned by USN BuWeps (US) in LEO that was launched on Sat, 28 Sep 1963 UTC via a THOR ABLESTAR launch vehicle from the Air Force Western Test Range (AFWTR). Payload-class satellites include a variety of spacecraft equipped with specific instruments for various scientific and technological missions. These include communications satellites like Starlink; space stations such as the ISS; scientific satellites like the Hubble; Earth observation satellites from companies like Planet Labs, Umbra, and HawkEye 360; GPS; miniature CubeSats for education and research; and military/defense satellites.

Loading next visibility...
Identifier
671, 1963-038C
Orbit
LEO
Country
Flag of USUS
Related business
Manufacturer
APL
Mission
Spacecraft
Bus & Motor
TRANSIT 5, Unknown motor
Mass
59 kg wet, 59 kg dry
Launch date (UTC)
1963-09-28 (63 years ago)
Launch vehicle
THOR ABLESTAR
Launch site
Air Force Western Test Range (AFWTR)
Object type
Payload
Rocket body
Debris
Shape & HBR
OCT CYL + 4 PAN, 1.5 m
Radar Cross Section
Medium (>0.1 m² and <1 m²)

Expand to show TLE details & history
Last TLE update: 23 hours ago

TLE from 23 hours ago
0 RADIATION SAT (5E 1)
1 00671U 63038C   26207.34133333  .00000062  00000-0  89318-4 0  9995
2 00671  89.9679 332.8790 0038613 236.4682 123.2775 13.45229656 80310
Epoch: 2026-07-26T08:11Z
TLE epoch observation values (Epoch: 2026-07-26T08:11:31.199Z)
Latitude
-0.00008°
Longitude
-94.04165°
Altitude
1,108.711 km
Speed
7.29 km/s
True Right ascension
22h 11m 30s
True Declination
0° 00' 00"
Sunlit
Object was in full shadow at epoch
Visualization orbit readout
Latitude
Unknown
Longitude
Unknown
Altitude
Unknown
Speed
Unknown
Apparent Right ascension
Unknown
Apparent Declination
Unknown
Sunlit
N/A
Visualization observer readout
Local Sidereal Time
20:28:19
Azimuth
Unknown
Elevation
Unknown
Doppler factor
Unknown
Orbital elements
Apogee altitude
1,115.743 km
Perigee altitude
1,058.093 km
Semi-major axis
7,465.055 km
Eccentricity
0.00386
Inclination
89.9679°
RAAN
332.879°
Arg. of periapsis
236.4682°
True anomaly
123.64644°
Mean anomaly
123.2775°
Eccentric anomaly
123.46207°
Mean motion
3.36507 °/min
Orbital period
106.98 mins
BSTAR
0.000089318
Loading maneuver chart data...
Computing Atmospheric mass density...

Documentation

Showing up to 5 results
|